Find Starlink 4731

NORAD ID: 53703 Int'l Des: 2022-107 Owner: SPXS Country: US Constellation: starlink operational
LEOCIRCULAR

Live Position

Loading 3D Globe...

About Starlink 4731

Description loading...

Upcoming Passes

Passes for default location (London). Set your location on the main map for personalized predictions.

Altitude History

Loading altitude history...

Two-Line Element Set

1 53703U 22107D 26125.76345718 -.00000229 00000-0 36755-5 0 9992
2 53703 53.2189 347.6494 0001323 92.4020 267.7123 15.08838848203478
Epoch: May 5, 2026 • Age: 8 hours

Current Status

Altitude 540.3 km
Velocity 7.59 km/s
Sub-Earth Point 2.65°N, 89.87°E
Launch Date Sep 5, 2022
Age 3.6 years
Type internet

Technical Details

Classification Payload
Mass 305.00 kg
Dry Mass 290.00 kg
Total Mass 305.00 kg
Length 0.20 m
Diameter 2.80 m
Span 9.00 m
Shape Box + pan
Manufacturer SPXS
Bus Type Starlink
Phase Status In Orbit
Owner/State SPXS/US

Most Searched